Location: Newark
(3.0500°N, 36.0167°E)
Time: 08:33:09
(UTC+00:00)

A-11 Canister half - Pass Details

Date: 26 August 2019
Orbit: 1527 x 1682 km, 47.3° (Epoch: 15 September)

Event Time Altitude Azimuth Distance (km) Brightness Sun altitude
Rises 07:02:45 0° 247° (WSW) 4,734 11.2 50.8°
Reaches altitude 10° 07:06:23 10° 258° (WSW) 3,771 10.8 51.7°
Maximum altitude 07:14:12 28° 314° (NW) 2,653 10.4 53.6°
Drops below altitude 10° 07:22:16 10° 9° (N) 3,868 11.4 55.6°
Sets 07:26:07 0° 21° (NNE) 4,875 11.9 56.5°
